Find OneWeb SL0552

NORAD ID: 56054 Int'l Des: 2023-043 Owner: ONEWEBN Country: UK Constellation: oneweb operational
LEOCIRCULARPOLARONEWEB_TYPE

当前视图

正在加载3D地球...

About OneWeb SL0552

OneWeb SL0552 (NORAD 56054) is a oneweb constellation satellite launched Mar 26, 2023 by ONEWEBN of UK. It operates in LEO, CIRCULAR, POLAR, ONEWEB_TYPE orbit with a mass of 148.00 kg.

关于 OneWeb SL0552

正在加载描述...

即将过境

Passes for default location (London). Set your location on the main map for personalized predictions.

高度历史

Loading altitude history...

两行轨道根数

1 56054U 23043J 26169.73764630 -.00000189 00000-0 -48834-3 0 9992
2 56054 87.9252 243.6752 0001807 101.0722 259.0615 13.21827558158434
Epoch: Jun 18, 2026 • Age: 7 hours

当前状态

高度 1207.9 km
速度 7.25 km/s
星下点 -85.95°S, 62.25°W
发射日期 Mar 26, 2023
运行时间 3.2 years
类型 internet

技术详情

分类 Payload
质量 148.00 kg
干质量 140.00 kg
总质量 148.00 kg
长度 1.30 m
直径 1.00 m
跨度 5.00 m
形状 Trapezoid+2 pan
制造商 ONEWUS
平台类型 ARROW
阶段状态 In Orbit
所有者/国家 ONEWEBN/UK

Most Searched